Regional Weather Roundup
Issued by NWS Northern Indiana

Home | Current Version | Previous Version | Text Only | Print | Product List | Glossary On
Versions: 1 2 3 4 5 6 7 8 9 10 11 12 13 14 15 16 17 18 19 20 21 22 23 24 25 26 27 28 29 30 31 32 33 34 35 36 37 38 39 40 41 42 43 44 45 46 47 48 49 50
000
ASUS43 KIWX 172210
RWRIWX

KIWX WEATHER ROUNDUP
NATIONAL WEATHER SERVICE NORTHERN INDIANA
600 PM EDT WED SEP 17 2014

NOTE: "FAIR" INDICATES FEW OR NO CLOUDS BELOW 12,000 FEET WITH NO
SIGNIFICANT WEATHER AND/OR OBSTRUCTIONS TO VISIBILITY.

* THESE STATIONS ARE NOT UNDER NWS QUALITY CONTROL. THEY ALSO MAY NOT
  REPORT WEATHER SUCH AS PRECIPITATION OR FOG.

INZ001>027-172300-
NORTHERN INDIANA

CITY           SKY/WX    TMP DP  RH WIND       PRES   REMARKS
GARY*          MOSUNNY   68  48  49 E8        29.98S
VALPARAISO     MOSUNNY   68  47  46 W7        29.98F
MICHIGAN CITY* SUNNY     63  45  51 N6        30.00S
LAPORTE*       SUNNY     66  46  48 N5        29.99S
KNOX*          MOSUNNY   69  45  42 W3        29.97S
SOUTH BEND     SUNNY     67  46  47 N9        30.00S
ELKHART*       SUNNY     66  43  42 NW6       29.99F
GOSHEN         SUNNY     67  46  47 W9        29.98F
MONTICELLO*    PTSUNNY   69  51  53 S3        29.97S
LOGANSPORT*    MOSUNNY   68  46  45 W3        29.98F
ROCHESTER*     MOSUNNY   70  45  40 NW5       29.98S
WARSAW*        PTSUNNY   64  48  55 NW3       29.99S
ANGOLA*        PTSUNNY   66  57  72 N7        29.98F
FORT WAYNE     MOSUNNY   66  48  52 W6        29.99F
HUNTINGTON*    PTSUNNY   66  49  53 N3        29.98F
PERU/GRISSOM   MOSUNNY   69  50  49 NW7       29.97F
MARION*        MOSUNNY   67  43  41 W3        29.99F

$$
INZ028>050-172300-
CENTRAL INDIANA

CITY           SKY/WX    TMP DP  RH WIND       PRES   REMARKS
LAFAYETTE      SUNNY     68  46  45 CALM      29.98F
KOKOMO*        MOSUNNY   70  46  43 W5        29.98F
MUNCIE*        MOSUNNY   65  47  52 W3        29.99F
INDIANAPOLIS   PTSUNNY   65  48  54 CALM      29.98F

$$
MIZ043>046-050>051-056>058-064>065-071>073-077>080-172300-
SOUTHWEST LOWER MICHIGAN

CITY           SKY/WX    TMP DP  RH WIND       PRES   REMARKS
BATTLE CREEK   PTSUNNY   66  46  48 N8        29.99F
BENTON HARBOR  SUNNY     62  45  53 NW6       30.00F
COLDWATER*     SUNNY     66  45  46 W6        29.99S
HILLSDALE*     SUNNY     66  43  44 NW6       29.99S
HOLLAND        SUNNY     65  46  50 NW7       30.01S
GRAND RAPIDS   MOSUNNY   66  46  48 W13       30.00S
KALAMAZOO      MOSUNNY   67  46  47 NW12      30.00S
STURGIS*         N/A     66  46  48 NW5       29.98F
THREE RIVERS*  FAIR      67  47  48 W9        29.99S

$$
OHZ001>008-015>018-024>025-172300-
NORTHWEST OHIO

CITY           SKY/WX    TMP DP  RH WIND       PRES   REMARKS
DEFIANCE       MOSUNNY   67  47  48 CALM      29.99S
FINDLAY        MOSUNNY   68  46  45 W7        29.98S
TOLEDO EXPRESS SUNNY     67  43  41 SW5       29.98S
TOLEDO METCALF MOSUNNY   68  43  40 SW7G17    29.98F
LIMA           MOSUNNY   66  48  52 NW5       29.99S

$$
&&



USA.gov is the U.S. government's official web portal to all federal, state and local government web resources and services.